Weather History for KHDN - June, 2013

Change the Weather History Date:

Friday, June 21, 2013

  Actual Average Record
Temperature  
Mean Temperature 60 °F -  
Max Temperature 82 °F 81 °F 89 °F (1961)
Min Temperature 39 °F 43 °F 27 °F (1960)
Degree Days  
Heating Degree Days 4    
Growing Degree Days 10 (Base 50)    
Moisture  
Dew Point 26 °F    
Average Humidity 29    
Maximum Humidity 57    
Minimum Humidity 11    
Precipitation  
Precipitation 0.00 in - - ()
Sea Level Pressure  
Sea Level Pressure 30.02 in    
Wind  
Wind Speed 9 mph (SSW)    
Max Wind Speed 25 mph    
Max Gust Speed 37 mph    
Visibility 10 miles    
Events      
Averages and records for this station are not official NWS values.
T = Trace of Precipitation, MM = Missing Value Source: NWS Daily Summary

Daily Weather History Graph

Daily Weather History Graph

Search for Another Location

Airport or City:

Trip Planner

Search our weather history database for the weather conditions in past years. The results will help you decide how hot, cold, wet, or windy it might be!

Date:

Astronomy

Jun. 21, 2013 Rise Set
Actual Time 5:38 AM MDT 8:42 PM MDT
Civil Twilight 5:05 AM MDT 9:16 PM MDT
Nautical Twilight 4:23 AM MDT 9:58 PM MDT
Astronomical Twilight 3:33 AM MDT 10:48 PM MDT
Moon 6:56 PM MDT (6/21) 3:57 AM MDT (6/21)
Length of Visible Light 16h 10m
Length of Day
15h 04m
Waxing Gibbous, 95% of the Moon is Illuminated
Jun 21
Waxing Gibbous
Jun 23
Full
Jun 29
Last Quarter
Jul 8
New
Jul 15
First Quarter

Hourly Weather History & Observations

Time (MDT) Temp. Windchill Dew Point Humidity Pressure Visibility Wind Dir Wind Speed Gust Speed Precip Events Conditions
12:15 AM 51.8 °F - 24.8 °F 35% 30.01 in 10.0 mi ESE 10.4 mph - N/A   Clear
12:35 AM 53.6 °F - 28.4 °F 38% 30.00 in 10.0 mi East 10.4 mph - N/A   Clear
12:55 AM 53.6 °F - 28.4 °F 38% 30.00 in 10.0 mi East 10.4 mph - N/A   Clear
1:15 AM 53.6 °F - 26.6 °F 35% 30.00 in 10.0 mi East 9.2 mph - N/A   Clear
1:35 AM 51.8 °F - 24.8 °F 35% 30.00 in 10.0 mi ESE 8.1 mph - N/A   Clear
1:55 AM 46.4 °F - 28.4 °F 50% 30.01 in 10.0 mi Calm Calm - N/A   Clear
2:15 AM 48.2 °F - 26.6 °F 43% 30.01 in 10.0 mi South 9.2 mph - N/A   Clear
2:35 AM 46.4 °F 43.5 °F 26.6 °F 46% 30.01 in 10.0 mi South 5.8 mph - N/A   Clear
2:55 AM 46.4 °F 44.3 °F 26.6 °F 46% 30.01 in 10.0 mi WSW 4.6 mph - N/A   Clear
3:15 AM 46.4 °F 45.2 °F 26.6 °F 46% 30.02 in 10.0 mi ENE 3.5 mph - N/A   Clear
3:35 AM 46.4 °F 43.5 °F 24.8 °F 43% 30.02 in 10.0 mi East 5.8 mph - N/A   Clear
3:55 AM 44.6 °F 40.7 °F 26.6 °F 49% 30.02 in 10.0 mi East 6.9 mph - N/A   Clear
4:15 AM 44.6 °F 41.4 °F 28.4 °F 53% 30.02 in 10.0 mi East 5.8 mph - N/A   Clear
4:35 AM 44.6 °F 40.2 °F 26.6 °F 49% 30.02 in 10.0 mi East 8.1 mph - N/A   Clear
4:55 AM 42.8 °F 39.3 °F 28.4 °F 57% 30.03 in 10.0 mi East 5.8 mph - N/A   Clear
5:15 AM 44.6 °F 42.2 °F 28.4 °F 53% 30.04 in 10.0 mi ESE 4.6 mph - N/A   Clear
5:35 AM 44.6 °F 43.1 °F 24.8 °F 46% 30.04 in 10.0 mi East 3.5 mph - N/A   Clear
5:55 AM 39.2 °F 37.0 °F 24.8 °F 56% 30.05 in 10.0 mi South 3.5 mph - N/A   Clear
6:15 AM 41.0 °F 38.0 °F 24.8 °F 53% 30.05 in 10.0 mi SE 4.6 mph - N/A   Clear
6:35 AM 41.0 °F 36.4 °F 24.8 °F 53% 30.05 in 10.0 mi ESE 6.9 mph - N/A   Clear
6:55 AM 44.6 °F 40.7 °F 26.6 °F 49% 30.06 in 10.0 mi East 6.9 mph - N/A   Clear
7:15 AM 46.4 °F 41.9 °F 28.4 °F 50% 30.06 in 10.0 mi ESE 9.2 mph - N/A   Clear
7:35 AM 48.2 °F - 28.4 °F 46% 30.06 in 10.0 mi ESE 9.2 mph - N/A   Clear
7:55 AM 51.8 °F - 28.4 °F 41% 30.06 in 10.0 mi ESE 12.7 mph - N/A   Clear
8:15 AM 53.6 °F - 30.2 °F 41% 30.06 in 10.0 mi ESE 12.7 mph - N/A   Clear
8:35 AM 55.4 °F - 30.2 °F 38% 30.06 in 10.0 mi ESE 11.5 mph - N/A   Clear
8:55 AM 59.0 °F - 32.0 °F 36% 30.06 in 10.0 mi East 10.4 mph - N/A   Clear
9:35 AM 62.6 °F - 32.0 °F 32% 30.06 in 10.0 mi East 10.4 mph - N/A   Clear
9:55 AM 66.2 °F - 30.2 °F 26% 30.06 in 10.0 mi ENE 8.1 mph - N/A   Clear
10:15 AM 68.0 °F - 30.2 °F 24% 30.06 in 10.0 mi NNE 3.5 mph - N/A   Clear
10:35 AM 69.8 °F - 35.6 °F 28% 30.06 in 10.0 mi NW 5.8 mph - N/A   Clear
11:15 AM 73.4 °F - 26.6 °F 18% 30.05 in 10.0 mi WSW 11.5 mph - N/A   Clear
11:35 AM 75.2 °F - 26.6 °F 17% 30.05 in 10.0 mi West 17.3 mph 25.3 mph N/A   Clear
11:55 AM 77.0 °F - 24.8 °F 14% 30.04 in 10.0 mi WSW 25.3 mph 33.4 mph N/A   Clear
12:15 PM 77.0 °F - 24.8 °F 14% 30.04 in 10.0 mi WSW 21.9 mph 32.2 mph N/A   Clear
12:35 PM 77.0 °F - 23.0 °F 13% 30.04 in 10.0 mi SW 18.4 mph 27.6 mph N/A   Clear
12:55 PM 78.8 °F - 24.8 °F 14% 30.04 in 10.0 mi WSW 15.0 mph 31.1 mph N/A   Clear
1:15 PM 78.8 °F - 23.0 °F 13% 30.03 in 10.0 mi WSW 15.0 mph 29.9 mph N/A   Clear
1:35 PM 78.8 °F - 23.0 °F 13% 30.03 in 10.0 mi West 19.6 mph 27.6 mph N/A   Clear
1:55 PM 80.6 °F - 23.0 °F 12% 30.03 in 10.0 mi WSW 17.3 mph 31.1 mph N/A   Clear
2:35 PM 78.8 °F - 21.2 °F 12% 30.03 in 10.0 mi West 13.8 mph 29.9 mph N/A   Clear
2:55 PM 80.6 °F - 23.0 °F 12% 30.02 in 10.0 mi West 20.7 mph 28.8 mph N/A   Clear
3:15 PM 80.6 °F - 23.0 °F 12% 30.02 in 10.0 mi WSW 17.3 mph 28.8 mph N/A   Clear
3:35 PM 80.6 °F - 23.0 °F 12% 30.01 in 10.0 mi SW 15.0 mph 24.2 mph N/A   Clear
3:55 PM 80.6 °F - 23.0 °F 12% 30.01 in 10.0 mi WSW 15.0 mph 26.5 mph N/A   Clear
4:15 PM 80.6 °F - 23.0 °F 12% 30.00 in 10.0 mi West 13.8 mph 36.8 mph N/A   Clear
4:35 PM 80.6 °F - 21.2 °F 11% 29.99 in 10.0 mi WSW 15.0 mph 23.0 mph N/A   Clear
4:55 PM 82.4 °F - 23.0 °F 11% 29.99 in 10.0 mi WSW 18.4 mph 25.3 mph N/A   Clear
5:15 PM 80.6 °F - 23.0 °F 12% 29.99 in 10.0 mi WSW 8.1 mph 24.2 mph N/A   Clear
5:35 PM 80.6 °F - 23.0 °F 12% 29.98 in 10.0 mi SW 17.3 mph 23.0 mph N/A   Clear
5:55 PM 80.6 °F - 23.0 °F 12% 29.98 in 10.0 mi WSW 11.5 mph 27.6 mph N/A   Clear
6:15 PM 80.6 °F - 21.2 °F 11% 29.97 in 10.0 mi WSW 15.0 mph 23.0 mph N/A   Clear
6:35 PM 80.6 °F - 23.0 °F 12% 29.97 in 10.0 mi West 15.0 mph 23.0 mph N/A   Clear
7:15 PM 77.0 °F - 23.0 °F 13% 29.97 in 10.0 mi West 13.8 mph 19.6 mph N/A   Clear
7:35 PM 75.2 °F - 24.8 °F 15% 29.97 in 10.0 mi WSW 10.4 mph - N/A   Clear
7:55 PM 73.4 °F - 24.8 °F 16% 29.97 in 10.0 mi West 8.1 mph - N/A   Clear
8:15 PM 71.6 °F - 24.8 °F 17% 29.97 in 10.0 mi WSW 6.9 mph - N/A   Clear
8:55 PM 66.2 °F - 30.2 °F 26% 29.97 in 10.0 mi Calm Calm - N/A   Clear
9:15 PM 64.4 °F - 28.4 °F 26% 29.97 in 10.0 mi West 3.5 mph - N/A   Clear
9:35 PM 62.6 °F - 24.8 °F 24% 29.98 in 10.0 mi WSW 4.6 mph - N/A   Clear
9:55 PM 62.6 °F - 24.8 °F 24% 29.99 in 10.0 mi SW 6.9 mph - N/A   Clear
10:15 PM 62.6 °F - 23.0 °F 22% 30.00 in 10.0 mi SSW 4.6 mph - N/A   Clear
10:35 PM 62.6 °F - 21.2 °F 20% 29.99 in 10.0 mi West 3.5 mph - N/A   Clear
10:55 PM 60.8 °F - 21.2 °F 22% 29.99 in 10.0 mi SSW 5.8 mph - N/A   Clear
11:15 PM 53.6 °F - 28.4 °F 38% 30.00 in 10.0 mi NE 5.8 mph - N/A   Clear
11:35 PM 53.6 °F - 26.6 °F 35% 30.01 in 10.0 mi SE 3.5 mph - N/A   Clear
11:55 PM 57.2 °F - 24.8 °F 29% 30.01 in 10.0 mi SSW 8.1 mph - N/A   Clear